Regional Weather Roundup
Issued by NWS

Home | Current Version | Previous Version | Graphics & Text | Print | Product List | Glossary On
Versions: 1 2 3 4 5 6 7 8 9 10 11 12 13 14 15 16 17 18 19 20 21 22 23 24 25 26 27 28 29 30 31 32 33 34 35 36 37 38 39 40 41 42 43 44 45 46 47 48 49 50
000
ASUS43 KOAX 260902
RWRNE

WEATHER ROUNDUP FOR NEBRASKA
NATIONAL WEATHER SERVICE OMAHA NE
400 AM CDT FRI AUG 26 2016

NOTES: SATELLITE DATA IS BEING USED TO AUGMENT CLOUD COVER ABOVE
       12000 FEET.
       "FAIR" INDICATES FEW OR NO CLOUDS BELOW 12,000 FEET WITH NO
       SIGNIFICANT WEATHER AND/OR OBSTRUCTIONS TO VISIBILITY.

  * THESE STATIONS DO NOT REPORT WEATHER SUCH AS RAIN...SNOW OR FOG.

NEZ001>004-019>022-054>056-261000-
NEBRASKA PANHANDLE

CITY           SKY/WX    TMP DP  RH WIND       PRES   REMARKS
SCOTTSBLUFF    CLOUDY    56  49  77 E8        30.16F
ALLIANCE       FAIR      52  47  83 SE10      30.17F
CHADRON        CLOUDY    55  47  74 NE5       30.16F
KIMBALL        FAIR      54  49  84 S8        30.18F
SIDNEY         MOCLDY    53  47  79 SE7       30.19F
$$

NEZ057>060-069>072-079>082-261000-
SOUTHWEST NEBRASKA

CITY           SKY/WX    TMP DP  RH WIND       PRES   REMARKS
NORTH PLATTE   FAIR      51  49  92 E3        30.19S
IMPERIAL       FAIR      54  50  86 S5        30.18S
LEXINGTON      FAIR      55  53  94 CALM      30.18S
MCCOOK         FAIR      57  53  86 NE5       30.16F
OGALLALA       FAIR      57  51  80 CALM      30.18S
$$

NEZ005>010-023>029-035>040-094-261000-
NORTH CENTRAL NEBRASKA

CITY           SKY/WX    TMP DP  RH WIND       PRES   REMARKS
VALENTINE      FAIR      48  44  86 CALM      30.20S
AINSWORTH      FAIR      51  49  91 CALM      30.21R
BROKEN BOW     FAIR      50  50 100 N6        30.18S
O`NEILL        FAIR      52  50  92 CALM      30.19S
ORD            FAIR      52  49  89 SW3       30.17S
THEDFORD       FAIR      53  49  87 CALM      30.20F
$$

NEZ041-046>049-061>064-073>077-083>087-261000-
SOUTH CENTRAL NEBRASKA

CITY           SKY/WX    TMP DP  RH WIND       PRES   REMARKS
GRAND ISLAND   FAIR      54  53  97 NE3       30.16F
AURORA         FAIR      56  55  99 E5        30.16R
HASTINGS       FAIR      58  54  86 E5        30.16F
HEBRON         FAIR      60  58  94 CALM      30.14S
HOLDREGE       FAIR      57  55  93 CALM      30.16R
KEARNEY *      FAIR      55  54  94 N5        30.16R
YORK           FAIR      55  54  94 NE5       30.15S
$$

NEZ011>018-030>034-042>045-261000-
NORTHEAST NEBRASKA

CITY           SKY/WX    TMP DP  RH WIND       PRES   REMARKS
NORFOLK        FAIR      54  52  93 CALM      30.16F
ALBION         FAIR      54  51  92 CALM      30.16F
BLAIR          FAIR      61  58  91 N6        30.15S
FREMONT        FAIR      56  55  97 CALM      30.15F
TEKAMAH        FAIR      55  53  93 NW3       30.15S
WAYNE          FAIR      52  52  99 CALM      30.17S FOG
$$

NEZ050>053-065>068-078-088>093-261000-
SOUTHEAST NEBRASKA

CITY           SKY/WX    TMP DP  RH WIND       PRES   REMARKS
LINCOLN        FAIR      60  57  89 CALM      30.15S
OMAHA EPPLEY   MOCLDY    60  57  89 N6        30.14S
BEATRICE       FAIR      60  59  96 NE3       30.14R
FALLS CITY     CLOUDY    64  62  93 N5        30.11F
NEBRASKA CITY  FAIR      61  61 100 N3        30.14S
PLATTSMOUTH    FAIR      61  59  94 N5        30.15S
$$

NEZ044-045-051>053-067-261000-
OMAHA AREA

CITY           SKY/WX    TMP DP  RH WIND       PRES   REMARKS
OMAHA EPPLEY   MOCLDY    60  57  89 N6        30.14S
BLAIR          FAIR      61  58  91 N6        30.15S
FREMONT        FAIR      56  55  97 CALM      30.15F
MILLARD        FAIR      61  58  91 CALM      30.15R
OFFUTT AFB     FAIR      61  61 100 NE2       30.14R
PLATTSMOUTH    FAIR      61  59  94 N5        30.15S
WAHOO          FAIR      57  55  95 N5        30.15S
$$



USA.gov is the U.S. government's official web portal to all federal, state and local government web resources and services.